This is the latest recevied weather packets stored in our database for station/object KJ4RDP-13. If no packets are shown the sender has not sent any weather packets the latest 1 day(s).
| Time | Temp. | Humidity | Pressure | Rain* | Wind** | Luminosity | Snow |
|---|---|---|---|---|---|---|---|
| 1836274639 | 15° C | 99% | 1021.1 hPa | 0 mm | 0 m/s | 0 W/m² | - |
| 1836274492 | 15° C | 99% | 1021.1 hPa | 0 mm | 0 m/s | 0 W/m² | - |
| 1836274336 | 15° C | 99% | 1021.1 hPa | 0 mm | 0 m/s | 0 W/m² | - |
| 1836274190 | 15° C | 99% | 1021.1 hPa | 0 mm | 0 m/s | 0 W/m² | - |
| 1836274035 | 15° C | 99% | 1020.7 hPa | 0 mm | 0 m/s | 0 W/m² | - |
| 1778051306 | 11.67° C | 92% | 1013.5 hPa | 0 mm | 0.89 m/s, 27° | 0 W/m² | - |
| 1778051003 | 12.22° C | 92% | 1013.1 hPa | 0 mm | 0.89 m/s, 27° | 0 W/m² | - |
| 1778050700 | 12.22° C | 92% | 1012.8 hPa | 0 mm | 0.45 m/s, 27° | 0 W/m² | - |
| 1778050398 | 12.78° C | 91% | 1013.1 hPa | 0 mm | 0.89 m/s, 27° | 0 W/m² | - |
| 1778050094 | 12.78° C | 90% | 1013.1 hPa | 0 mm | 1.34 m/s, 28° | 0 W/m² | - |
| 1778049789 | 12.22° C | 91% | 1013.5 hPa | 0 mm | 0 m/s | 0 W/m² | - |
| 1778049487 | 11.67° C | 93% | 1013.5 hPa | 0 mm | 0.45 m/s, 27° | 0 W/m² | - |
| 1778049184 | 11.67° C | 94% | 1013.8 hPa | 0 mm | 0 m/s | 0 W/m² | - |
| 1778048883 | 11.11° C | 95% | 1013.8 hPa | 0 mm | 0.89 m/s, 27° | 0 W/m² | - |
| 1778048580 | 11.11° C | 95% | 1013.5 hPa | 0 mm | 0.45 m/s, 26° | 0 W/m² | - |
| 1778048276 | 11.11° C | 94% | 1013.5 hPa | 0 mm | 0.89 m/s, 26° | 0 W/m² | - |
| 1778047973 | 11.11° C | 94% | 1013.1 hPa | 0 mm | 0.45 m/s, 26° | 0 W/m² | - |
| 1778047671 | 11.67° C | 94% | 1013.5 hPa | 0 mm | 0.45 m/s, 26° | 0 W/m² | - |
| 1778047368 | 11.67° C | 93% | 1013.8 hPa | 0 mm | 1.34 m/s, 26° | 0 W/m² | - |
| 1778047060 | 11.67° C | 93% | 1013.5 hPa | 0 mm | 0 m/s | 0 W/m² | - |
| 1778046756 | 11.67° C | 92% | 1013.5 hPa | 0 mm | 0 m/s | 0 W/m² | - |
| 1778046453 | 11.67° C | 93% | 1013.5 hPa | 0 mm | 1.34 m/s, 26° | 0 W/m² | - |
| 1778046150 | 11.67° C | 91% | 1013.5 hPa | 0 mm | 0 m/s | 0 W/m² | - |
| 1778045847 | 11.67° C | 92% | 1013.5 hPa | 0 mm | 0.45 m/s, 26° | 0 W/m² | - |
| 1778045546 | 12.22° C | 91% | 1013.5 hPa | 0 mm | 0 m/s | 0 W/m² | - |
* Rain latest hour (hover to see other rain measurements)
** Current wind speed in m/s (hover to see current wind gust speed)